Weather History for Nashville, TN

Change the Weather History Date:

Saturday, October 12, 2013

  Actual Average Record
Temperature  
Mean Temperature 67 °F 62 °F  
Max Temperature 81 °F 73 °F 88 °F (1969)
Min Temperature 52 °F 50 °F 33 °F (1906)
Degree Days  
Heating Degree Days 0 5  
Month to date heating degree days 12 47  
Since 1 July heating degree days 14 71  
Cooling Degree Days 2 2  
Month to date cooling degree days 66 29  
Year to date cooling degree days 1710 1623  
Growing Degree Days 16 (Base 50)    
Moisture  
Dew Point 56 °F    
Average Humidity 69    
Maximum Humidity 93    
Minimum Humidity 45    
Precipitation  
Precipitation 0.00 in 0.09 in 1.43 in (2004)
Month to date precipitation 1.08 1.17  
Year to date precipitation 43.11 36.83  
Snow  
Snow 0.00 in 0.00 in 0.00 in (2002)
Month to date snowfall 0.0 0.0  
Since 1 July snowfall 0.0 0.0  
Since 1 September snowfall 0.0 0.0  
Snow Depth 0.00 in    
Sea Level Pressure  
Sea Level Pressure 30.07 in    
Wind  
Wind Speed 2 mph (South)    
Max Wind Speed 8 mph    
Max Gust Speed 24 mph    
Visibility 8 miles    
Events Fog    
T = Trace of Precipitation, MM = Missing Value Source: NWS Daily Summary

Daily Weather History Graph

Daily Weather History Graph

Search for Another Location

Airport:

Trip Planner

Search our weather history database for the weather conditions in past years. The results will help you decide how hot, cold, wet, or windy it might be!

Date:

Astronomy

Oct. 12, 2013 Rise Set
Actual Time 6:51 AM CDT 6:14 PM CDT
Civil Twilight 6:25 AM CDT 6:40 PM CDT
Nautical Twilight 5:55 AM CDT 7:09 PM CDT
Astronomical Twilight 5:25 AM CDT 7:39 PM CDT
Moon 2:13 PM CDT (10/12) 12:05 AM CDT (10/12)
Length of Visible Light 12h 14m
Length of Day
11h 23m
First Quarter, 59% of the Moon is Illuminated
Oct 12
First Quarter
Oct 18
Full
Oct 26
Last Quarter
Nov 3
New
Nov 9
First Quarter

Hourly Weather History & Observations

Time (CDT) Temp. Heat Index Dew Point Humidity Pressure Visibility Wind Dir Wind Speed Gust Speed Precip Events Conditions
12:53 AM 59.0 °F - 55.9 °F 90% 30.04 in 9.0 mi Calm Calm - N/A   Clear
1:53 AM 57.0 °F - 55.0 °F 93% 30.04 in 9.0 mi Calm Calm - N/A   Clear
2:53 AM 57.0 °F - 54.0 °F 89% 30.04 in 7.0 mi Calm Calm - N/A   Clear
3:53 AM 55.9 °F - 54.0 °F 93% 30.05 in 8.0 mi Calm Calm - N/A   Clear
4:15 AM 55.4 °F - 53.6 °F 94% 30.06 in 6.0 mi Calm Calm - N/A   Scattered Clouds
4:38 AM 55.4 °F - 53.6 °F 94% 30.06 in 1.0 mi Calm Calm - N/A   Scattered Clouds
4:40 AM 55.4 °F - 53.6 °F 94% 30.06 in 1.0 mi Calm Calm - N/A   Mostly Cloudy
4:53 AM 55.0 °F - 53.1 °F 93% 30.05 in 1.0 mi Calm Calm - N/A   Mostly Cloudy
5:53 AM 54.0 °F - 52.0 °F 93% 30.06 in 2.0 mi Calm Calm - N/A   Scattered Clouds
5:55 AM 53.6 °F - 51.8 °F 94% 30.07 in 0.8 mi Calm Calm - N/A   Mist
6:20 AM 53.6 °F - 51.8 °F 94% 30.08 in 1.2 mi Calm Calm - N/A   Scattered Clouds
6:23 AM 53.6 °F - 51.8 °F 94% 30.08 in 2.0 mi Calm Calm - N/A   Scattered Clouds
6:32 AM 53.6 °F - 51.8 °F 94% 30.08 in 6.0 mi Calm Calm - N/A   Scattered Clouds
6:53 AM 53.1 °F - 51.1 °F 93% 30.07 in 6.0 mi Calm Calm - N/A Fog Patches of Fog
7:53 AM 55.9 °F - 53.1 °F 90% 30.09 in 8.0 mi Calm Calm - N/A Fog Patches of Fog
8:53 AM 62.1 °F - 57.0 °F 84% 30.09 in 9.0 mi Calm Calm - N/A   Partly Cloudy
9:53 AM 69.1 °F - 55.9 °F 63% 30.09 in 10.0 mi SSE 3.5 mph - N/A   Scattered Clouds
10:53 AM 75.0 °F - 55.0 °F 50% 30.10 in 10.0 mi SSW 4.6 mph - N/A   Mostly Cloudy
11:53 AM 78.1 °F - 55.0 °F 45% 30.11 in 10.0 mi South 3.5 mph - N/A   Mostly Cloudy
12:53 PM 80.1 °F 80.4 °F 57.0 °F 45% 30.09 in 10.0 mi NNW 5.8 mph - N/A   Mostly Cloudy
1:53 PM 79.0 °F - 55.9 °F 45% 30.08 in 10.0 mi WNW 5.8 mph - N/A   Mostly Cloudy
2:53 PM 79.0 °F - 57.9 °F 48% 30.08 in 10.0 mi Variable 4.6 mph - N/A   Mostly Cloudy
3:53 PM 78.1 °F - 57.9 °F 50% 30.06 in 10.0 mi SW 3.5 mph - N/A   Mostly Cloudy
4:53 PM 75.9 °F - 60.1 °F 58% 30.05 in 10.0 mi Calm Calm - N/A   Mostly Cloudy
5:53 PM 75.0 °F - 60.1 °F 60% 30.05 in 10.0 mi East 3.5 mph - N/A   Mostly Cloudy
6:53 PM 69.1 °F - 59.0 °F 70% 30.05 in 10.0 mi SSE 4.6 mph - N/A   Scattered Clouds
7:53 PM 66.9 °F - 59.0 °F 76% 30.07 in 10.0 mi Calm Calm - N/A   Scattered Clouds
8:53 PM 68.0 °F - 61.0 °F 78% 30.10 in 10.0 mi Calm Calm - N/A   Scattered Clouds
9:53 PM 64.9 °F - 61.0 °F 87% 30.12 in 10.0 mi Calm Calm - N/A   Clear
10:53 PM 64.0 °F - 60.1 °F 87% 30.12 in 10.0 mi Calm Calm - N/A   Clear
11:53 PM 64.0 °F - 61.0 °F 90% 30.12 in 10.0 mi Calm Calm - N/A   Clear